Location: Newark
(36.1358°N, 115.1208°W)
Time: 13:49:12
(UTC+00:00)

Transit 2A - All Passes

Search period start: 17 February 2020 00:00
Search period end: 27 February 2020 00:00
Orbit: 600 x 959 km, 66.7° (Epoch: 16 February)

Date Brightness Start Highest point End Pass type
(mag) Time Alt. Az. Time Alt. Az. Time Alt. Az.
17 Feb - 07:04:00 10° NNW 07:09:10 71° ENE 07:14:53 10° SSE night (unlit)
17 Feb - 08:49:19 10° WNW 08:51:54 14° WSW 08:54:35 10° SW night (unlit)
17 Feb - 21:42:16 10° SSW 21:46:37 74° WNW 21:50:59 10° NNE daylight
18 Feb - 06:30:01 10° NNW 06:35:01 48° ENE 06:40:29 10° SE night (unlit)
18 Feb - 08:13:59 10° WNW 08:17:56 21° WSW 08:22:07 10° SSW night (unlit)
18 Feb - 21:08:12 10° SSW 21:12:31 67° ESE 21:16:50 10° NNE daylight
18 Feb - 22:54:37 10° WNW 22:56:08 12° NW 22:57:39 10° NNW daylight
19 Feb - 05:56:10 10° N 06:00:48 33° ENE 06:05:50 10° ESE night (unlit)
19 Feb - 07:39:15 10° NW 07:43:55 31° WSW 07:48:56 10° S night (unlit)
19 Feb - 20:34:25 10° S 20:38:28 39° ESE 20:42:32 10° NE daylight
19 Feb - 22:18:50 10° W 22:21:45 17° NW 22:24:42 10° N daylight
20 Feb - 05:22:28 10° N 05:26:32 23° NE 05:30:54 10° ESE night (unlit)
20 Feb - 07:04:48 10° NW 07:09:51 47° WSW 07:15:23 10° S night (unlit)
20 Feb - 20:00:57 10° SSE 20:04:28 24° ESE 20:07:58 10° NE daylight
20 Feb - 21:43:48 10° WSW 21:47:27 26° NW 21:51:08 10° N daylight
21 Feb - 04:49:02 10° NNE 04:52:13 16° NE 04:55:34 10° E visible
21 Feb - 06:30:32 10° NNW 06:35:46 72° WSW 06:41:33 10° SSE night (unlit)
21 Feb - 19:28:03 10° SE 19:30:31 15° ESE 19:32:57 10° ENE daylight
21 Feb - 21:09:08 10° SW 21:13:13 40° WNW 21:17:21 10° NNE daylight
22 Feb - 04:16:19 10° NNE 04:17:49 11° NE 04:19:21 10° ENE visible
22 Feb - 05:56:24 10° NNW 06:01:39 78° ENE 06:07:27 10° SSE night (unlit)
22 Feb - 07:42:06 10° W 07:44:21 12° WSW 07:46:39 10° SW night (unlit)
22 Feb - 20:34:44 10° SW 20:39:02 66° WNW 20:43:24 10° NNE daylight
23 Feb - 05:22:24 10° NNW 05:27:30 52° ENE 05:33:06 10° SE visible
23 Feb - 07:06:35 10° WNW 07:10:23 20° WSW 07:14:24 10° SSW night (unlit)
23 Feb - 20:00:37 10° SSW 20:04:55 75° ESE 20:09:18 10° NNE daylight
23 Feb - 21:47:39 10° WNW 21:48:38 11° NW 21:49:37 10° NNW daylight
24 Feb - 04:48:31 10° N 04:53:18 36° ENE 04:58:31 10° ESE visible
24 Feb - 06:31:46 10° NW 06:36:23 29° WSW 06:41:20 10° SSW night (unlit)
24 Feb - 19:26:45 10° S 19:30:52 44° ESE 19:35:01 10° NE daylight
24 Feb - 21:11:32 10° W 21:14:14 16° NW 21:16:59 10° N daylight
25 Feb - 04:14:46 10° N 04:19:03 25° NE 04:23:40 10° ESE visible
25 Feb - 05:57:17 10° NW 06:02:20 44° WSW 06:07:51 10° S visible
25 Feb - 18:53:13 10° SSE 18:56:51 27° ESE 19:00:31 10° NE daylight
25 Feb - 20:36:23 10° WSW 20:39:54 24° NW 20:43:30 10° N daylight
26 Feb - 03:41:15 10° N 03:44:44 18° NE 03:48:25 10° E visible
26 Feb - 05:22:58 10° NNW 05:28:15 66° WSW 05:34:03 10° SSE visible
26 Feb - 18:20:10 10° SE 18:22:54 16° ESE 18:25:38 10° ENE daylight
26 Feb - 20:01:39 10° SW 20:05:39 37° WNW 20:09:45 10° N daylight
